CAPE
0 0 0 0 0 0 0 0 0 0 0 0 0 0 0 0 0 0 0 0 0 0
0 0 0 0 0 0 0 0 0 0 0 0 0 0 0 0 0 0 0 0 0 0
0 0 0 0 0 0 0 0 0 0 0 0 0 0 0 0 0 0 0 0 0 0
0 0 0 0 0 0 0 0 0 0 0 0 0 0 0 0 0 0 0 0 0 0
0 0 0 0 0 0 0 0 0 0 0 0 0 0 0 0 0 0 0 0 0 0
0 0 0 0 0 0 0 0 0 0 0 0 0 0 0 0 0 0 0 0 0 0
0 0 0 0 0 0 0 0 0 0 0 0 0 0 0 0 0 0 0 0 0 0
0 0 0 0 0 0 0 0 0 0 0 0 0 0 0 0 0 0 0 0 0 0
0 0 0 0 0 0 0 0 0 0 0 0 0 0 0 0 0 0 0 0 0 0
0 0 0 0 0 0 0 0 0 0 0 0 0 0 0 0 0 0 0 0 0 0
0 0 0 0 0 0 0 0 0 0 0 0 0 0 0 0 0 0 0 0 0 0
0 0 0 0 0 0 0 0 0 0 0 0 0 0 0 0 0 0 0 0 0 0
0 0 0 0 0 0 0 0 0 0 0 0 0 0 0 0 0 0 0 0 0 0
0 0 0 0 0 0 0 0 0 0 0 0 0 0 0 0 0 0 0 0 0 0
CIN
-0 -0 -0 -0 -0 -0 -0 -0 -0 -0 -0 -0 -0 -0 -0 -0 -0 -0 -0 -0 -0 -0
-0 -0 -0 -0 -0 -0 -0 -0 -0 -0 -0 -0 -0 -0 -0 -0 -0 -0 -0 -0 -0 -0
-0 -0 -0 -0 -0 -0 -0 -0 -0 -0 -0 -0 -0 -0 -0 -0 -0 -0 -0 -0 -0 -0
-0 -0 -0 -0 -0 -0 -0 -0 -0 -0 -0 -0 -0 -0 -0 -0 -0 -0 -0 -0 -0 -0
-0 -0 -0 -0 -0 -0 -0 -0 -0 -0 -0 -0 -0 -0 -0 -0 -0 -0 -0 -0 -0 -0
-0 -0 -0 -0 -0 -0 -0 -0 -0 -0 -0 -0 -0 -0 -0 -0 -0 -0 -0 -0 -0 -0
-0 -0 -0 -0 -0 -0 -0 -0 -0 -0 -0 -0 -0 -0 -0 -0 -0 -0 -0 -0 -0 -0
-0 -0 -0 -0 -0 -0 -0 -0 -0 -0 -0 -0 -0 -0 -0 -0 -0 -0 -0 -0 -0 -0
-0 -0 -0 -0 -0 -0 -0 -0 -0 -0 -0 -0 -0 -0 -0 -0 -0 -0 -0 -0 -0 -0
-0 -0 -0 -0 -0 -0 -0 -0 -0 -0 -0 -0 -0 -0 -0 -0 -0 -0 -0 -0 -0 -0
-0 -0 -0 -0 -0 -0 -0 -0 -0 -0 -0 -0 -0 -0 -0 -0 -0 -0 -0 -0 -0 -0
-0 -0 -0 -0 -0 -0 -0 -0 -0 -0 -0 -0 -0 -0 -0 -0 -0 -0 -0 -0 -0 -0
-0 -0 -0 -0 -0 -0 -0 -0 -0 -0 -0 -0 -0 -0 -0 -0 -0 -0 -0 -0 -0 -0
-0 -0 -0 -0 -0 -0 -0 -0 -0 -0 -0 -0 -0 -0 -0 -0 -0 -0 -0 -0 -0 -0
Wind_Speed
4 2 2 1 1 2 2 3 3 4 5 5 5 5 4 3 3 3 4 6 5 4
3 2 0 1 1 2 3 3 4 5 5 5 5 5 5 3 5 4 4 5 5 4
2 2 2 2 4 4 4 4 5 6 5 6 5 5 5 4 5 5 4 4 6 4
3 3 3 3 3 3 4 4 5 5 5 5 5 5 5 5 6 6 6 5 6 6
4 4 4 4 4 4 5 4 5 5 5 5 5 5 5 6 6 6 6 6 6 7
5 5 5 5 5 5 5 6 6 6 6 7 6 6 6 6 7 6 6 6 6 7
6 6 5 5 6 5 5 6 6 6 6 6 6 6 7 6 6 6 6 6 6 6
5 5 5 6 6 5 6 6 6 6 6 6 6 6 6 6 7 7 7 7 6 6
5 6 6 6 6 6 6 6 5 7 6 7 6 12 16 13 6 7 7 8 7 6
6 6 7 6 6 6 6 6 7 7 7 7 7 16 18 17 7 6 7 7 6 7
5 6 6 6 6 6 5 6 7 7 7 7 8 17 18 18 8 7 7 7 7 6
6 6 6 7 7 7 6 6 6 6 7 7 10 16 17 15 6 7 8 7 6 6
6 6 7 7 7 5 5 8 6 9 8 11 10 15 17 13 4 6 6 6 7 12
6 7 7 7 5 6 8 7 8 8 9 8 9 11 17 16 5 5 6 5 5 5
Wind_Direction
138 159 174 203 235 301 287 295 312 332 332 326 328 326 319 306 298 281 274 269 245 242
117 125 87 352 318 297 308 308 336 330 325 324 323 316 314 303 302 300 278 270 263 250
83 45 9 352 342 339 326 336 333 332 328 323 317 316 323 314 303 305 292 280 281 269
38 18 6 357 342 331 316 325 324 316 314 311 313 320 322 308 296 298 294 288 287 285
20 6 359 344 326 327 319 315 307 307 304 303 309 312 308 301 294 292 295 292 295 283
5 356 344 334 327 323 320 318 317 318 318 317 312 310 299 287 290 281 275 279 277 275
357 340 324 319 322 323 322 318 320 315 304 298 296 286 281 278 277 277 274 269 262 267
331 334 333 332 328 324 326 316 307 304 299 290 290 284 287 278 275 272 274 270 264 257
347 344 344 336 330 321 310 304 297 295 282 289 288 286 296 295 277 280 274 281 283 264
338 329 323 313 305 299 297 293 291 290 291 289 286 299 303 302 286 266 270 265 267 285
337 327 326 326 317 303 290 295 294 294 291 291 291 298 301 299 287 276 263 256 254 253
323 318 316 308 301 296 291 293 288 279 281 281 287 292 298 302 282 273 271 261 247 245
314 311 303 292 292 279 275 284 289 292 284 281 283 289 297 301 271 279 283 281 268 265
302 295 285 283 271 280 286 282 283 280 282 269 268 281 295 298 283 265 281 268 275 264